Regional Weather Roundup
Issued by NWS

Home | Current Version | Previous Version | Text Only | Print | Product List | Glossary Off
Versions: 1 2 3 4 5 6 7 8 9 10 11 12 13 14 15 16 17 18 19 20 21 22 23 24 25 26 27 28 29 30 31 32 33 34 35 36 37 38 39 40 41 42 43 44 45 46 47 48 49 50

000
ASUS43 KMKX 021759
RWRWI

WISCONSIN REGIONAL WEATHER ROUNDUP
NATIONAL WEATHER SERVICE MILWAUKEE/SULLIVAN WI
1200 PM CST MON MAR 02 2015

NOTE: "FAIR" INDICATES FEW OR NO CLOUDS BELOW 12,000 FEET WITH NO
SIGNIFICANT WEATHER AND/OR OBSTRUCTIONS TO VISIBILITY.

WIZ001-002-006>008-014>016-023>028-021900-
NORTHWEST WISCONSIN

CITY           SKY/WX    TMP DP  RH WIND       PRES   REMARKS
SUPERIOR ARPT  SUNNY     24   9  53 W9G16     30.42F WCI  14
ASHLAND        SUNNY     24   7  48 MISG      30.42F
6HR MIN TEMP:   4; 6HR MAX TEMP:  24;

HAYWARD        SUNNY     21   3  45 SW9       30.40F WCI  11
6HR MIN TEMP:  -7; 6HR MAX TEMP:  21; 6HR PCP: TRACE;

SIREN          SUNNY     22   6  50 SW9       30.44F WCI  12
CUMBERLAND     SUNNY     19   7  58 SW8       30.43F WCI   9
RICE LAKE      SUNNY     21   6  51 S6        30.46F WCI  14
6HR MIN TEMP:  -3; 6HR MAX TEMP:  21;

CHETEK         SUNNY     21   6  51 SW3       30.46F
LADYSMITH      SUNNY     22   4  45 SW9       30.44F WCI  12
6HR MIN TEMP:  -3; 6HR MAX TEMP:  22;

EAU CLAIRE     NOT AVBL
MENOMONIE      FAIR      23   6  50 S6        30.47F WCI  15
NEW RICHMOND   SUNNY     22   6  49 S3        30.45F
OSCEOLA        SUNNY     23   7  48 S5        30.48F WCI  17
$$

WIZ003>005-009-010-017-018-021900-
NORTH CENTRAL WISCONSIN

CITY           SKY/WX    TMP DP  RH WIND       PRES   REMARKS
MANITOWISH WTR SUNNY     19   5  53 SW9       30.37R WCI   8
ARBOR VITAE    SUNNY     22   5  48 CALM      30.37S
WOODRUFF       SUNNY     22   5  48 CALM      30.37S
RHINELANDER    SUNNY     21   5  50 W10       30.37F WCI  10
6HR MIN TEMP:   6; 6HR MAX TEMP:  21;

EAGLE RIVER    SUNNY     20   2  45 NW8       30.36S WCI  11
LAND O LAKES   SUNNY     23   3  43 W3        30.35F
PHILLIPS       SUNNY     20   3  48 SW6       30.39F WCI  12
TOMAHAWK       SUNNY     22   2  43 CALM      30.40F
MEDFORD        SUNNY     18   4  55 S6        30.41F WCI  10
MERRILL        SUNNY     22   5  48 W9        30.41F WCI  11
$$

WIZ029-030-035-036-043>047-021900-
CENTRAL WISCONSIN

CITY           SKY/WX    TMP DP  RH WIND       PRES   REMARKS
WAUSAU         SUNNY     20   4  50 W6        30.41F WCI  12
6HR MIN TEMP:   7; 6HR MAX TEMP:  20;

MOSINEE        NOT AVBL
MARSHFIELD     SUNNY     20   6  55 SW7       30.44F WCI  11
6HR MIN TEMP:   1; 6HR MAX TEMP:  20;

STEVENS POINT  SUNNY     20   5  52 SW9       30.45F WCI   9
WAUPACA        SUNNY     27   4  36 CALM      30.47F
WAUTOMA        NOT AVBL
WISC RAPIDS    SUNNY     22   2  42 VRB5      30.47F WCI  16
6HR MIN TEMP:   3; 6HR MAX TEMP:  23; 6HR PCP: TRACE;

CAMP DOUGLAS   NOT AVBL
$$

WIZ011>013-019>022-031-037>040-048>050-021900-
NORTHEAST WISCONSIN

CITY           SKY/WX    TMP DP  RH WIND       PRES   REMARKS
ANTIGO         SUNNY     20   6  54 W5        30.39F WCI  14
SHAWANO        SUNNY     26   8  47 SW7       30.47S WCI  18
OCONTO         SUNNY     24   7  47 W3        30.46F
STURGEON BAY   SUNNY     21   7  53 SW8       30.47F WCI  12
6HR MIN TEMP:  12; 6HR MAX TEMP:  21;

GREEN BAY      SUNNY     25   9  50 SW8       30.47F WCI  16
6HR MIN TEMP:  10; 6HR MAX TEMP:  25;

MANITOWOC      NOT AVBL
APPLETON       MOSUNNY   25   7  46 SW7       30.47S WCI  17
CLINTONVILLE   SUNNY     25   9  50 SW7       30.45F WCI  17
OSHKOSH        SUNNY     24   9  52 MISG      30.47F
6HR MIN TEMP:  11; 6HR MAX TEMP:  24;

$$

WIZ032>034-041-042-053>061-021900-
SOUTHWEST WISCONSIN

CITY           SKY/WX    TMP DP  RH WIND       PRES   REMARKS
LA CROSSE      SUNNY     25   9  50 CALM      30.49F
6HR MIN TEMP:   5; 6HR MAX TEMP:  25;

SPARTA         SUNNY     24   6  47 N3        30.50F
VIROQUA        SUNNY     21   7  53 CALM      30.46S
BOSCOBEL       SUNNY     25  12  58 SW7       30.50F WCI  17
6HR MIN TEMP:   0; 6HR MAX TEMP:  25;

PRAIRIE DU CHI SUNNY     24  10  56 CALM      30.51F
PLATTEVILLE    MOSUNNY   20  13  74 CALM      30.50R
$$

WIZ056-057-062-063-064-067-068-021900-
SOUTH CENTRAL WISCONSIN

CITY           SKY/WX    TMP DP  RH WIND       PRES   REMARKS
REEDSBURG      SUNNY     22   8  56 SW5       30.48S WCI  15
BARABOO/DELLS  SUNNY     22   8  53 SW3       30.47F
LONE ROCK      NOT AVBL
MINERAL POINT  SUNNY     25  12  58 CALM      30.47F
MADISON        PTSUNNY   24   9  52 VRB7      30.49F WCI  16
6HR MIN TEMP:   4; 6HR MAX TEMP:  25;

MIDDLETON      SUNNY     26   9  48 E3        30.49F
WATERTOWN      SUNNY     25  11  56 W3        30.49S
MONROE         SUNNY     25  14  63 CALM      30.48S
JANESVILLE     SUNNY     25   9  50 CALM      30.50F
$$

WIZ051-052-058>065-066-070>072-021900-
SOUTHEAST WISCONSIN

CITY           SKY/WX    TMP DP  RH WIND       PRES   REMARKS
MILWAUKEE      MOSUNNY   27   8  44 SW3       30.49F
6HR MIN TEMP:  16; 6HR MAX TEMP:  28;

WAUKESHA       SUNNY     19   9  63 W5        30.49F WCI  13
MILWAUKEE/TIMM SUNNY     27   7  43 CALM      30.49F
RACINE         SUNNY     25   8  48 W5        30.51S WCI  19
6HR MIN TEMP:  12; 6HR MAX TEMP:  26;

BURLINGTON     SUNNY     24   9  51 CALM      30.50S
KENOSHA        SUNNY     24  10  55 NW6       30.50S WCI  17
6HR MIN TEMP:   8; 6HR MAX TEMP:  24;

FOND DU LAC    SUNNY     24   8  50 NW6       30.47F WCI  17
6HR MIN TEMP:   9; 6HR MAX TEMP:  24;

SHEBOYGAN      SUNNY     25   8  48 CALM      30.47F
6HR MIN TEMP:  13; 6HR MAX TEMP:  25;

WEST BEND      SUNNY     25   9  50 CALM      30.47F
JUNEAU         SUNNY     24   9  54 NW3       30.49S
$$

LSZ147-162-021900-
LAKE SUPERIOR

STATION/POSITION TIME  TEMP    WIND        PRES    WAVE
                       AIR SEA DIR/SP/G            HT/PER
                 (UTC) (F)     (DEG/KT/KT) (MB)    (FT/S)
DEVILS ISLAND    1700   17     240/ 15/ 18 1031.8R
PORT WING        1740   21     270/  7/ 13 1030.1F
SAXON HARBOR     1700   23     250/  5/ 11 1030.5
$$

LMZ867-665-643>646-021900-
LAKE MICHIGAN

STATION/POSITION TIME  TEMP    WIND        PRES    WAVE
                       AIR SEA DIR/SP/G            HT/PER
                 (UTC) (F)     (DEG/KT/KT) (MB)    (FT/S)
NORTHPORT PIER   1708   21     310/  9/ 13 1030.5R
SISTER BAY       1743   35     260/  8/  8   N/A
KEWAUNEE LAKESHO 1700   23     280/  4/  6 1030.8R
SHEBOYGAN LAKESH 1700   22     230/  3/  5 1033.9R
PORT WASHINGTON  1700   25     300/  6/  7 1033.5
MILWAUKEE LAKESH 1700   24     330/  6/  9   N/A
KENOSHA   LAKESH 1700   23     310/  5/  8 1033.2R
$$

TC  - TEMPERATURE IN CELSIUS
VSB - VISIBILITY IN STATUTE MILES
WCI - WIND CHILL INDEX
HX  - HEAT INDEX



USA.gov is the U.S. government's official web portal to all federal, state and local government web resources and services.